Regional Weather Roundup
Issued by NWS Upton, NY

Current Version | Previous Version | Text Only | Print | Product List | Glossary On
Versions: 1 2 3 4 5 6 7 8 9 10 11 12 13 14 15 16 17 18 19 20 21 22 23 24 25 26 27 28 29 30 31 32 33 34 35 36 37 38 39 40 41 42 43 44 45 46 47 48 49 50
000 ASUS41 KOKX 250318 RWROKX REGIONAL WEATHER ROUNDUP NATIONAL WEATHER SERVICE NEW YORK NY 1100 PM EDT SUN MAY 24 2015 NOTE: "FAIR" INDICATES FEW OR NO CLOUDS BELOW 12,000 FEET WITH NO SIGNIFICANT WEATHER AND/OR OBSTRUCTIONS TO VISIBILITY. NYZ071-072-176-178-NJZ106-104-250400- NEW YORK CITY METRO AREA CITY SKY/WX TMP DP RH WIND PRES REMARKS CENTRAL PARK CLOUDY 70 49 47 MISG 30.29R LAGUARDIA APRT CLOUDY 70 49 47 S12 30.26S KENNEDY INTL CLOUDY 62 53 72 S9 30.29R NEWARK/LIBERTY CLOUDY 69 50 50 S9 30.26R BRNX BOT. GARD N/A 64 50 59 E1 30.26F TETERBORO CLOUDY 70 51 51 S9 30.25R $$ NYZ177-179-078>081-250400- LONG ISLAND NEW YORK CITY SKY/WX TMP DP RH WIND PRES REMARKS FARMINGDALE CLOUDY 61 52 72 SW12 30.29S ISLIP CLOUDY 61 50 67 SW13 30.28S SHIRLEY MOCLDY 61 51 70 SW10G18 30.30S WESTHAMPTON MOCLDY 58 52 80 SW8 30.31S MONTAUK POINT N/A 59 52 77 SW9G18 30.30S $$ NYZ052-065-067-250400- HUDSON VALLEY CITY SKY/WX TMP DP RH WIND PRES REMARKS WHITE PLAINS CLOUDY 61 52 72 CALM 30.26S NEWBURGH CLEAR 64 48 55 SW6 30.25 MONTGOMERY MOCLDY 56 51 84 CALM 30.23F POUGHKEEPSIE PTCLDY 60 50 69 CALM 30.23S ALBANY CLOUDY 62 46 55 CALM 30.20S $$ NJZ001-105-106-008-010-013-015-019>022-104-250400- NEW JERSEY CITY SKY/WX TMP DP RH WIND PRES REMARKS NEWARK/LIBERTY CLOUDY 69 50 50 S9 30.26R TETERBORO CLOUDY 70 51 51 S9 30.25R CALDWELL CLOUDY 70 42 36 VRB3 30.26S MORRISTOWN CLOUDY 66 43 42 CALM 30.26S SOMERVILLE MOCLDY 62 48 60 CALM 30.25R SUSSEX MOCLDY 58 47 66 CALM 30.27S ANDOVER N/A 60 50 69 CALM 30.26F TRENTON MOCLDY 66 52 60 S9 30.27S MILLVILLE PTCLDY 63 57 81 VRB3 30.30S ATLANTIC CITY CLEAR 61 53 75 S7 30.31S WRIGHTSTOWN PTCLDY 59 50 71 S3 30.27R TOMS RIVER PTCLDY N/A N/A N/A S7 30.30S BELMAR MOCLDY 63 46 55 SW7 30.29S $$ PAZ047>061-062-071-250400- EASTERN PENNSYLVANIA CITY SKY/WX TMP DP RH WIND PRES REMARKS PHILADELPHIA PTCLDY 67 54 63 S5 30.29R ALLENTOWN CLOUDY 66 43 43 SW5 30.26S SCRANTON MOCLDY 68 44 42 S3 30.24F $$ CTZ002-004>006-009-010-012-RIZ004-006-007-MAZ004-011-015-250400- SOUTHERN NEW ENGLAND IN CT CITY SKY/WX TMP DP RH WIND PRES REMARKS BRADLEY INTL MOCLDY 64 50 60 S8 30.24R HARTFORD MOCLDY 62 49 62 S7 30.26R DANBURY CLOUDY 62 49 62 CALM 30.27S WTRBRY/OXFORD MOCLDY 59 46 63 S5 30.30S BRIDGEPORT CLOUDY 62 51 67 SW6 30.27S MERIDEN MOCLDY 60 49 66 S3 30.27S NEW HAVEN CLOUDY 60 50 69 SW5 30.28R CHESTER FAIR 59 48 67 SW7 30.28S GROTON MOCLDY 58 47 66 W7 30.28S WILLIMANTIC MOCLDY 62 49 62 SW3 30.27R IN RI CITY SKY/WX TMP DP RH WIND PRES REMARKS PROVIDENCE CLOUDY 63 47 55 SW14 30.26S BLOCK ISLAND MOCLDY 54 48 82 SW15 30.29S WESTERLY MOCLDY 60 48 64 VRB3 30.29S IN MA CITY SKY/WX TMP DP RH WIND PRES REMARKS BOSTON CLOUDY 67 47 48 SW17 30.22R WORCESTER CLOUDY 62 46 55 W14 30.25S WESTFIELD NOT AVBL PROVINCETOWN MOCLDY 55 48 76 SW16 30.24S NANTUCKET CLOUDY 57 50 77 SW14 30.30R $$ ANZ330-335-338-340-345-350-353-355-250400- COASTAL MARINE OBSERVATIONS STATION/POSITION TIME SKY/WX TEMP WIND PRES VSBY WAVE AIR SEA DIR/SP/G HT/PER (UTC) (F) (DEG/KT/KT) (MB) (MI) (FT/S) NY HARB ENTRANCE 0250 59 56 210/ 17/ 21 1024.9 4/ 5 4S FIRE IS 0203 54 N/A 4/ 5 20S FIRE ISLAND 0250 59 55 210/ 16/ 17 1025.6 4/ 5 GREAT SOUTH BAY 0200 60 63 240/ 16/ 19 N/A 23SW MTP 0250 56 53 220/ 12/ 14 1025.8 3/ 5 HUDSON CANYON NOT AVBL KINGS POINT 0200 65 59 180/ 7/ 10 1024.2 CENTRAL LI SOUND 0230 59 53 250/ 8/ 12 N/A EASTERN LI SOUND 0200 56 260/ 10/ 12 N/A ROBBINS REEF 0200 69 200/ 16/ 18 1023.4 $$ >>>>>>>>>>>>>>>>>>>>>>>>>>>> KEY <<<<<<<<<<<<<<<<<<<<<<<<<<< > < > SKY/WX - SKY CONDITION/PRESENT WEATHER < > TMP - TEMPERATURE IN FAHRENHEIT < > DP - DEWPOINT IN FAHRENHEIT < > RH - RELATIVE HUMIDITY IN PERCENT < > WIND - DIRECTION AND SPEED IN MPH < > PRES - MEAN SEA LEVEL PRESSURE IN INCHES OF HG < > WCI - WIND CHILL INDEX < > VSB - VISIBILITY IN MILES < > HX - HEAT INDEX < > TC - TEMPERATURE IN CELSIUS < > VRB - VARIABLE WIND DIRECTION < > < >>>>>>>>>>>>>>>>>>>>>>>>>>>> KEY <<<<<<<<<<<<<<<<<<<<<<<<<<<

USA.gov is the U.S. government's official web portal to all federal, state and local government web resources and services.